#timestamp,LO_Frequency,Hit,StdDev 
1622574015.5,286047002.6,Y
1622574035.4,286047000.1,P
1622574055.2,286047002.3,P
1622574075.0,286046998.2,N
1622574075.9,286046998.2,N
1622574095.8,286046998.7,N
1622574115.6,286046999.1,N
1622574135.5,286046996.8,N
1622574155.3,286046997.3,N
1622574175.1,286046999.2,N
1622574195.9,286046999.4,N
1622574215.7,286046998.9,N
1622574235.5,286047000.0,N
1622574255.4,286047000.6,N
1622574275.2,286047002.3,N
1622574295.1,286046998.1,N
1622574296.0,286046998.1,N
1622574315.8,286047000.3,N
1622574335.6,286047002.4,N
1622574355.5,286047001.6,N
1622574375.3,286047000.1,N
1622574395.1,286047002.7,N
1622574415.9,286047000.5,N
1622574435.7,286046999.1,N
1622574455.6,286046999.2,N
1622574475.4,286046998.2,N
1622574495.2,286047000.7,N
1622574515.1,286047000.8,N
1622574516.0,286047000.8,N
1622574535.8,286046998.3,N
1622574555.6,286046999.8,N
1622574575.5,286047002.5,N
1622574595.3,286046999.8,N
1622574615.2,286046999.7,N
1622574635.9,286046999.7,N
1622574655.7,286047000.1,N
1622574675.6,286047002.7,N
1622574695.4,286047002.5,N
1622574715.2,286047000.8,N
1622574735.1,286047001.1,N
1622574736.0,286047001.1,N
1622574755.8,286046998.1,N
1622574775.7,286046998.6,N
1622574795.5,286046996.9,N
1622574815.3,286046999.6,N
1622574835.2,286046998.2,N
1622574855.0,286047000.6,N
1622574855.9,286047000.6,N
1622574875.7,286046998.4,N
1622574895.6,286047001.0,N
1622574915.4,286047002.7,N
1622574935.3,286047001.9,N
1622574955.1,286046999.8,N
1622574975.8,286047000.6,N
1622574995.7,286046998.3,N
1622575015.5,286046998.7,N
1622575035.4,286047002.3,N
1622575055.2,286047001.0,N
1622575075.0,286046999.1,N
1622575075.9,286046999.1,N
1622575095.8,286046998.3,N
1622575115.6,286047001.0,N
1622575135.4,286047000.5,N
1622575155.3,286047002.2,N
1622575175.1,286047001.9,N
1622575195.9,286047000.8,N
1622575215.7,286047000.7,N
1622575235.6,286047000.2,N
1622575255.4,286047001.1,N
1622575275.2,286047002.7,N
1622575295.1,286047002.4,N
1622575296.0,286047002.4,N
1622575315.8,286047001.6,N
1622575335.7,286047002.1,N
1622575355.5,286047001.9,N
1622575375.4,286047000.0,N
1622575395.2,286047002.8,N
1622575415.0,286047002.8,N
1622575415.9,286047002.8,N
1622575435.8,286047000.9,N
1622575455.6,286046999.7,N
1622575475.5,286047002.5,N
1622575495.3,286047000.7,N
1622575515.1,286047000.5,N
1622575535.9,286046998.4,N
1622575555.7,286047002.3,N
1622575575.6,286046998.2,N
1622575595.4,286046999.9,N
1622575615.2,286047001.2,N
1622575635.1,286046999.5,N
1622575636.0,286046999.5,N
1622575655.8,286046998.7,N
1622575675.6,286046997.1,N
1622575695.5,286046995.4,Y
1622575715.7,286046995.2,P
1622575735.5,286046995.2,N
1622575755.3,286046993.4,N
1622575775.2,286046993.9,N
1622575795.0,286046993.3,N
1622575795.9,286046993.3,N
1622575815.8,286046994.0,N
1622575835.6,286046994.7,N
1622575855.4,286046994.2,N
1622575875.3,286046993.5,Y
1622575895.1,286046998.4,P
1622575915.9,286046997.0,N
1622575935.7,286046997.8,N
1622575955.5,286046999.0,N
1622575975.4,286046999.3,N
1622575995.2,286046996.6,N
1622576015.0,286046997.0,N
1622576015.9,286046997.0,N
1622576035.8,286046994.9,Y
1622576055.6,286046998.5,P
1622576075.5,286046998.1,P
1622576095.3,286047000.7,N
1622576115.1,286046998.1,N
1622576135.9,286046998.1,N
1622576155.7,286047000.2,N
1622576175.6,286046998.3,N
1622576195.4,286046998.1,N
1622576215.2,286046998.1,N
1622576235.1,286046998.8,N
1622576236.0,286046998.8,N
1622576255.8,286046999.1,N
1622576275.7,286046999.6,N
1622576295.5,286046999.6,N
1622576315.3,286046996.6,Y
1622576335.2,286046998.3,P
1622576355.0,286046998.3,P
1622576355.9,286046998.3,P
1622576375.8,286047001.2,Y
1622576395.6,286046999.7,P
1622576415.4,286047000.2,N
1622576435.3,286047000.2,N
1622576455.1,286047000.0,N
1622576475.8,286046999.7,N
1622576495.7,286047000.6,N
1622576515.5,286047000.0,N
1622576535.4,286047000.5,N
1622576555.2,286047000.4,N
1622576575.0,286047000.5,N
1622576575.9,286047000.5,N
1622576595.8,286047000.6,N
1622576615.6,286047000.6,N
1622576635.5,286047000.6,N
1622576655.3,286046998.1,Y
1622576675.1,286046998.4,P
1622576695.9,286046996.5,P
1622576715.7,286046999.2,N
1622576735.6,286046996.8,N
1622576755.4,286046997.6,N
1622576775.2,286046997.2,N
1622576795.1,286046995.8,Y
1622576796.0,286046995.8,P
1622576815.8,286046997.2,N
1622576835.7,286046997.5,N
1622576855.5,286046997.2,Y
1622576875.3,286047002.4,P
1622576895.2,286047001.1,N
1622576915.0,286046999.1,N
1622576915.9,286046999.1,N
1622576935.7,286046998.4,N
1622576955.6,286046999.3,N
1622576975.4,286046999.3,N
1622576995.3,286046998.5,N
1622577015.1,286047000.5,N
1622577016.0,286047000.5,N
1622577035.8,286047001.0,N
1622577055.7,286047000.6,N
1622577075.5,286046999.9,N
1622577095.4,286047002.8,N
1622577115.2,286047002.6,N
1622577135.0,286047002.0,N
1622577135.9,286047002.0,N
1622577155.8,286047004.1,N
1622577175.6,286047005.6,Y
1622577195.4,286047007.6,P
1622577215.3,286047006.7,N
1622577235.1,286047004.7,N
1622577255.9,286047005.6,N
1622577275.7,286047005.1,N
1622577295.5,286047007.6,Y
1622577315.4,286046999.3,P
1622577335.2,286047000.5,N
1622577355.0,286046998.5,N
1622577355.9,286046998.5,N
1622577375.8,286046999.8,N
1622577395.6,286047001.4,N
1622577415.5,286046999.9,N
1622577435.3,286047002.3,N
1622577455.1,286047001.9,N
1622577475.9,286047000.0,N
1622577495.7,286047002.3,N
1622577515.5,286047002.7,N
1622577535.4,286047004.0,N
1622577555.2,286047004.1,N
1622577575.1,286047001.6,N
1622577576.0,286047001.6,N
1622577595.8,286047004.0,N
